TimeCST,TemperatureF,Dew PointF,Humidity,Sea Level PressureIn,VisibilityMPH,Wind Direction,Wind SpeedMPH,Gust SpeedMPH,PrecipitationIn,Events,Conditions,WindDirDegrees,DateUTC
12:53 AM,37.9,30.0,73,30.08,10.0,SSE,5.8,-,N/A,,Clear,150,2012-12-06 06:53:00
1:53 AM,37.9,30.9,76,30.06,10.0,SSE,9.2,-,N/A,,Clear,160,2012-12-06 07:53:00
2:53 AM,39.9,30.9,70,30.04,10.0,SSE,8.1,-,N/A,,Clear,160,2012-12-06 08:53:00
3:53 AM,44.1,32.0,63,30.03,10.0,SSE,10.4,-,N/A,,Clear,160,2012-12-06 09:53:00
4:53 AM,44.1,33.1,65,30.01,10.0,SSE,10.4,-,N/A,,Clear,160,2012-12-06 10:53:00
5:53 AM,42.1,33.1,70,30.02,10.0,South,8.1,-,N/A,,Clear,170,2012-12-06 11:53:00
6:53 AM,43.0,34.0,71,30.01,10.0,SSE,6.9,-,N/A,,Clear,150,2012-12-06 12:53:00
7:53 AM,43.0,34.0,71,30.01,10.0,SSE,6.9,-,N/A,,Clear,160,2012-12-06 13:53:00
8:53 AM,46.0,35.1,66,30.01,10.0,SSE,9.2,-,N/A,,Clear,150,2012-12-06 14:53:00
9:53 AM,48.0,37.0,66,30.00,10.0,SSE,8.1,-,N/A,,Clear,160,2012-12-06 15:53:00
10:53 AM,54.0,41.0,62,29.99,10.0,South,10.4,-,N/A,,Clear,180,2012-12-06 16:53:00
11:53 AM,55.0,42.1,62,29.96,10.0,SSW,8.1,-,N/A,,Clear,200,2012-12-06 17:53:00
12:53 PM,54.0,43.0,66,29.94,10.0,South,5.8,-,N/A,,Mostly Cloudy,190,2012-12-06 18:53:00
1:53 PM,55.0,44.1,67,29.91,10.0,South,5.8,-,N/A,,Partly Cloudy,170,2012-12-06 19:53:00
2:53 PM,55.9,44.1,64,29.89,10.0,SE,5.8,-,N/A,,Partly Cloudy,130,2012-12-06 20:53:00
3:53 PM,55.0,44.1,67,29.89,10.0,ENE,3.5,-,N/A,,Clear,70,2012-12-06 21:53:00
4:53 PM,52.0,43.0,71,29.90,10.0,ENE,5.8,-,N/A,,Clear,60,2012-12-06 22:53:00
5:53 PM,51.1,42.1,71,29.91,10.0,East,4.6,-,N/A,,Clear,80,2012-12-06 23:53:00
6:53 PM,48.9,43.0,80,29.91,10.0,East,6.9,-,N/A,,Clear,100,2012-12-07 00:53:00
7:53 PM,48.9,42.1,77,29.92,10.0,ENE,4.6,-,N/A,,Clear,70,2012-12-07 01:53:00
8:53 PM,48.0,42.1,80,29.92,10.0,Calm,Calm,-,N/A,,Clear,0,2012-12-07 02:53:00
9:53 PM,46.9,41.0,80,29.91,10.0,East,3.5,-,N/A,,Clear,80,2012-12-07 03:53:00
10:53 PM,48.0,42.1,80,29.90,10.0,Calm,Calm,-,N/A,,Overcast,0,2012-12-07 04:53:00
11:53 PM,48.9,42.1,77,29.89,10.0,NE,3.5,-,N/A,,Overcast,40,2012-12-07 05:53:00